Big Rapids, MI

4:27 AM EDT on September 20, 2019 (GMT -0400)
Roben-Hood

Weather History for KRQB - July, 2019

Change the Weather History Date:

Friday, July 26, 2019

  Actual Average Record
Temperature  
Mean Temperature 69 °F -  
Max Temperature 81 °F 81 °F 93 °F (1989)
Min Temperature 57 °F 56 °F 40 °F (1975)
Cooling Degree Days 4    
Growing Degree Days 19 (Base 50)    
Moisture  
Dew Point 59 °F    
Average Humidity 70    
Maximum Humidity 96    
Minimum Humidity 44    
Precipitation  
Precipitation 0.00 in - - ()
Sea Level Pressure  
Sea Level Pressure 30.19 in    
Wind  
Wind Speed 4 mph (SSW)    
Max Wind Speed 13 mph    
Max Gust Speed 23 mph    
Visibility 10 miles    
Events      
Averages and records for this station are not official NWS values.
T = Trace of Precipitation, MM = Missing Value Source: NWS Daily Summary

Daily Weather History Graph

Daily Weather History Graph

Search for Another Location

Airport or City:

Astronomy

Jul. 26, 2019 Rise Set
Actual Time 6:24 AM EDT 9:12 PM EDT
Civil Twilight 5:50 AM EDT 9:45 PM EDT
Nautical Twilight 5:08 AM EDT 10:27 PM EDT
Astronomical Twilight 4:19 AM EDT 11:16 PM EDT
Moon 1:41 AM EDT (7/26) 3:54 PM EDT (7/26)
Length of Visible Light 15h 54m
Length of Day
14h 47m
Waning Crescent, 34% of the Moon is Illuminated
Jul 26
Waning Crescent
Jul 31
New
Aug 7
First Quarter
Aug 15
Full
Aug 23
Last Quarter

Hourly Weather History & Observations

Time (EDT) Temp. Heat Index Dew Point Humidity Pressure Visibility Wind Dir Wind Speed Gust Speed Precip Events Conditions
12:15 AM 62.4 °F - 58.3 °F 86% 30.19 in 10.0 mi Calm Calm - N/A   Clear
12:16 AM 62.2 °F - 58.1 °F 86% 30.19 in 10.0 mi Calm Calm - N/A   Clear
12:35 AM 61.5 °F - 58.1 °F 89% 30.19 in 10.0 mi Calm Calm - N/A   Clear
12:59 AM 61.2 °F - 57.9 °F 89% 30.19 in 10.0 mi Calm Calm - N/A   Clear
1:17 AM 59.9 °F - 56.8 °F 90% 30.20 in 10.0 mi Calm Calm - N/A   Clear
1:35 AM 60.3 °F - 57.7 °F 91% 30.19 in 10.0 mi Calm Calm - N/A   Clear
1:36 AM 60.3 °F - 57.7 °F 91% 30.19 in 10.0 mi Calm Calm - N/A   Clear
1:55 AM 59.5 °F - 56.8 °F 91% 30.20 in 10.0 mi Calm Calm - N/A   Clear
2:15 AM 59.9 °F - 57.9 °F 93% 30.20 in 10.0 mi Calm Calm - N/A   Clear
2:20 AM 60.1 °F - 58.1 °F 93% 30.20 in 10.0 mi Calm Calm - N/A   Clear
2:38 AM 59.4 °F - 57.6 °F 94% 30.20 in 10.0 mi Calm Calm - N/A   Clear
2:56 AM 59.0 °F - 57.4 °F 94% 30.19 in 10.0 mi Calm Calm - N/A   Clear
3:15 AM 58.1 °F - 56.5 °F 94% 30.19 in 10.0 mi Calm Calm - N/A   Clear
3:16 AM 58.1 °F - 56.5 °F 94% 30.19 in 10.0 mi Calm Calm - N/A   Clear
3:39 AM 58.5 °F - 57.2 °F 96% 30.19 in 10.0 mi Calm Calm - N/A   Clear
3:57 AM 59.2 °F - 58.1 °F 96% 30.19 in 10.0 mi Calm Calm - N/A   Clear
4:15 AM 58.1 °F - 56.7 °F 95% 30.19 in 10.0 mi Calm Calm - N/A   Clear
4:16 AM 58.1 °F - 56.7 °F 95% 30.19 in 10.0 mi Calm Calm - N/A   Clear
4:35 AM 58.6 °F - 57.4 °F 96% 30.18 in 10.0 mi Calm Calm - N/A   Clear
4:55 AM 57.9 °F - 56.7 °F 96% 30.18 in 10.0 mi Calm Calm - N/A   Clear
5:18 AM 58.5 °F - 57.2 °F 96% 30.19 in 10.0 mi Calm Calm - N/A   Clear
5:36 AM 58.1 °F - 56.7 °F 95% 30.20 in 10.0 mi Calm Calm - N/A   Clear
5:55 AM 57.7 °F - 56.5 °F 96% 30.20 in 7.0 mi East 4.6 mph - N/A   Clear
5:56 AM 57.6 °F - 56.3 °F 96% 30.20 in 7.0 mi Calm Calm - N/A   Clear
6:15 AM 57.7 °F - 56.7 °F 96% 30.21 in 10.0 mi Calm Calm - N/A   Clear
6:37 AM 57.4 °F - 56.3 °F 96% 30.21 in 10.0 mi ESE 4.6 mph - N/A   Clear
6:55 AM 57.4 °F - 56.3 °F 96% 30.21 in 7.0 mi Calm Calm - N/A   Clear
7:15 AM 57.9 °F - 56.7 °F 96% 30.22 in 7.0 mi Calm Calm - N/A   Clear
7:16 AM 58.1 °F - 56.8 °F 96% 30.22 in 7.0 mi Calm Calm - N/A   Clear
7:35 AM 59.0 °F - 57.7 °F 96% 30.22 in 10.0 mi SSE 3.5 mph - N/A   Clear
7:36 AM 59.2 °F - 57.9 °F 96% 30.22 in 10.0 mi SSE 3.5 mph - N/A   Clear
7:59 AM 60.8 °F - 59.0 °F 94% 30.22 in 10.0 mi Calm Calm - N/A   Scattered Clouds
8:17 AM 62.6 °F - 60.3 °F 92% 30.23 in 10.0 mi Calm Calm - N/A   Clear
8:35 AM 64.9 °F - 61.5 °F 89% 30.23 in 10.0 mi Calm Calm - N/A   Clear
8:55 AM 67.5 °F - 62.1 °F 83% 30.24 in 10.0 mi Calm Calm - N/A   Clear
8:56 AM 67.6 °F - 62.1 °F 82% 30.24 in 10.0 mi Calm Calm - N/A   Clear
9:19 AM 71.4 °F - 61.9 °F 72% 30.24 in 10.0 mi South 4.6 mph - N/A   Clear
9:36 AM 73.9 °F - 61.0 °F 64% 30.25 in 10.0 mi SW 5.8 mph - N/A   Clear
9:55 AM 74.7 °F - 59.9 °F 60% 30.24 in 10.0 mi SW 6.9 mph - N/A   Clear
9:56 AM 74.7 °F - 59.9 °F 60% 30.24 in 10.0 mi WSW 6.9 mph - N/A   Clear
10:15 AM 76.1 °F - 60.1 °F 57% 30.24 in 10.0 mi SW 6.9 mph - N/A   Clear
10:39 AM 76.6 °F - 59.9 °F 56% 30.24 in 10.0 mi SW 9.2 mph - N/A   Clear
10:57 AM 77.5 °F - 60.3 °F 55% 30.24 in 10.0 mi SSW 8.1 mph - N/A   Clear
11:15 AM 78.1 °F - 58.8 °F 51% 30.24 in 10.0 mi SW 6.9 mph 17.3 mph N/A   Clear
11:16 AM 78.1 °F - 58.8 °F 51% 30.24 in 10.0 mi WSW 5.8 mph - N/A   Clear
11:35 AM 78.3 °F - 59.2 °F 52% 30.23 in 10.0 mi SSW 8.1 mph - N/A   Clear
11:59 AM 78.1 °F - 59.4 °F 52% 30.23 in 10.0 mi SW 9.2 mph - N/A   Clear
12:17 PM 79.0 °F - 58.5 °F 49% 30.23 in 10.0 mi WSW 8.1 mph - N/A   Clear
12:35 PM 79.0 °F - 58.8 °F 50% 30.23 in 10.0 mi WSW 11.5 mph - N/A   Clear
12:36 PM 79.2 °F - 58.6 °F 49% 30.23 in 10.0 mi WSW 11.5 mph - N/A   Clear
12:55 PM 79.9 °F - 59.0 °F 49% 30.22 in 10.0 mi SSW 10.4 mph 17.3 mph N/A   Scattered Clouds
1:15 PM 79.9 °F - 59.0 °F 49% 30.22 in 10.0 mi WSW 8.1 mph 16.1 mph N/A   Scattered Clouds
1:38 PM 80.4 °F 81.0 °F 59.0 °F 48% 30.22 in 10.0 mi WSW 9.2 mph - N/A   Scattered Clouds
1:56 PM 81.1 °F 81.3 °F 58.1 °F 45% 30.21 in 10.0 mi SW 12.7 mph 23.0 mph N/A   Mostly Cloudy
2:15 PM 79.7 °F - 58.5 °F 48% 30.21 in 10.0 mi WSW 11.5 mph 16.1 mph N/A   Mostly Cloudy
2:16 PM 79.9 °F - 58.3 °F 48% 30.21 in 10.0 mi WSW 11.5 mph 16.1 mph N/A   Mostly Cloudy
2:35 PM 79.5 °F - 57.7 °F 47% 30.20 in 10.0 mi SSW 9.2 mph - N/A   Mostly Cloudy
2:36 PM 79.5 °F - 57.7 °F 47% 30.20 in 10.0 mi SSW 9.2 mph - N/A   Mostly Cloudy
2:59 PM 79.0 °F - 57.7 °F 48% 30.20 in 10.0 mi SSW 9.2 mph 16.1 mph N/A   Scattered Clouds
3:17 PM 80.1 °F 80.6 °F 57.9 °F 47% 30.19 in 10.0 mi SSW 9.2 mph - N/A   Mostly Cloudy
3:35 PM 80.1 °F 80.5 °F 57.4 °F 46% 30.19 in 10.0 mi SSW 10.4 mph 20.7 mph N/A   Scattered Clouds
3:36 PM 80.1 °F 80.5 °F 57.4 °F 46% 30.19 in 10.0 mi SW 9.2 mph 20.7 mph N/A   Scattered Clouds
3:55 PM 79.7 °F - 56.8 °F 45% 30.19 in 10.0 mi SSW 8.1 mph 18.4 mph N/A   Clear
3:56 PM 79.7 °F - 57.4 °F 46% 30.19 in 10.0 mi SSW 8.1 mph 18.4 mph N/A   Clear
4:15 PM 80.6 °F 80.8 °F 57.7 °F 45% 30.18 in 10.0 mi South 9.2 mph - N/A   Clear
4:38 PM 80.8 °F 80.9 °F 57.2 °F 44% 30.18 in 10.0 mi SSW 9.2 mph 17.3 mph N/A   Clear
4:56 PM 79.3 °F - 57.0 °F 46% 30.17 in 10.0 mi SSW 9.2 mph 16.1 mph N/A   Scattered Clouds
5:15 PM 78.4 °F - 55.0 °F 44% 30.17 in 10.0 mi South 12.7 mph 17.3 mph N/A   Scattered Clouds
5:16 PM 78.4 °F - 55.0 °F 44% 30.17 in 10.0 mi SSW 11.5 mph 17.3 mph N/A   Scattered Clouds
5:35 PM 78.6 °F - 56.5 °F 46% 30.16 in 10.0 mi SSW 9.2 mph 18.4 mph N/A   Clear
5:59 PM 78.8 °F - 56.8 °F 47% 30.16 in 10.0 mi SW 9.2 mph - N/A   Clear
6:17 PM 79.3 °F - 58.1 °F 48% 30.16 in 10.0 mi SSW 11.5 mph - N/A   Clear
6:35 PM 79.7 °F - 59.0 °F 49% 30.15 in 10.0 mi SW 9.2 mph - N/A   Clear
6:36 PM 79.7 °F - 58.8 °F 49% 30.15 in 10.0 mi SSW 9.2 mph - N/A   Clear
6:55 PM 77.5 °F - 58.8 °F 52% 30.15 in 10.0 mi SW 6.9 mph - N/A   Clear
7:19 PM 77.9 °F - 58.1 °F 50% 30.15 in 10.0 mi SW 9.2 mph - N/A   Clear
7:37 PM 76.3 °F - 58.8 °F 55% 30.15 in 10.0 mi SSW 9.2 mph - N/A   Clear
7:55 PM 75.7 °F - 59.2 °F 56% 30.15 in 10.0 mi SSW 10.4 mph - N/A   Clear
7:56 PM 75.7 °F - 59.0 °F 56% 30.14 in 10.0 mi SSW 11.5 mph - N/A   Clear
8:15 PM 75.2 °F - 59.5 °F 58% 30.15 in 10.0 mi SW 4.6 mph - N/A   Clear
8:35 PM 74.7 °F - 59.5 °F 59% 30.14 in 10.0 mi SSW 8.1 mph - N/A   Clear
8:39 PM 74.5 °F - 59.9 °F 60% 30.14 in 10.0 mi SSW 5.8 mph - N/A   Clear
8:56 PM 73.6 °F - 59.9 °F 62% 30.14 in 10.0 mi SSW 10.4 mph - N/A   Clear
9:15 PM 72.7 °F - 59.9 °F 64% 30.14 in 10.0 mi SSW 8.1 mph - N/A   Clear
9:16 PM 72.5 °F - 59.9 °F 64% 30.14 in 10.0 mi SSW 5.8 mph - N/A   Clear
9:35 PM 71.2 °F - 60.1 °F 68% 30.14 in 10.0 mi SSW 10.4 mph - N/A   Clear
9:55 PM 68.9 °F - 60.6 °F 75% 30.14 in 10.0 mi SSW 10.4 mph - N/A   Clear
9:59 PM 68.2 °F - 60.8 °F 77% 30.14 in 10.0 mi SSW 9.2 mph - N/A   Clear
10:16 PM 68.2 °F - 60.6 °F 77% 30.14 in 10.0 mi SSW 10.4 mph - N/A   Clear
10:35 PM 69.1 °F - 60.6 °F 74% 30.14 in 10.0 mi SSW 10.4 mph - N/A   Clear
10:36 PM 69.1 °F - 60.6 °F 74% 30.14 in 10.0 mi SSW 10.4 mph - N/A   Clear
10:55 PM 70.0 °F - 60.8 °F 73% 30.14 in 10.0 mi SSW 9.2 mph - N/A   Clear
10:56 PM 70.0 °F - 60.8 °F 73% 30.14 in 10.0 mi South 9.2 mph - N/A   Clear
11:19 PM 70.2 °F - 60.8 °F 72% 30.14 in 10.0 mi SSW 10.4 mph - N/A   Clear
11:37 PM 70.0 °F - 60.8 °F 73% 30.14 in 10.0 mi South 10.4 mph - N/A   Clear
11:55 PM 69.8 °F - 60.8 °F 73% 30.13 in 10.0 mi South 10.4 mph - N/A   Scattered Clouds